TITAN 3C TRANSTAGE R/B

基本信息
目录编号:
3956
目录名称:
TITAN 3C TRANSTAGE R/B
国际标识:
1969-046F
轨道中心:
EARTH
物体状态:
在轨
发射日期:
1969-05-23 UTC
国别:
美国 (US)
轨道信息
数据来源: 国际轨道数据
星历时间: 2026-07-14T22:03:00+0800
半长轴: 70703.059km
偏心率: 0.8020196
轨道倾角: 17.471°
近地点辐角: 271.135°
升交点赤经: 36.856°
平近点角: 358.917°
近地点: 7619.682km
远地点: 121030.162km
周期: 3118.294分钟
每日圈数: 0.461791
详细信息
发射场:
AFETR
轨道高度:
MEO
数据来源:
AOE Integration Group
参考系:
TEME
时间系统:
UTC
历元类型:
SGP4
2D轨道图
3D轨道图
轨道高度分析图
轨道倾角分析图
轨道综合分析图
查看轨道综合分析图